sat.trackr.live / text

‹ back to catalog

ONEWEB-0040

NORAD 45147 · 2020-008S

PAYLOAD ACTIVE UNKNOWN

§ Identity

Operator
Country
UK
Launch date
2020-02-06
Launch site
TYMSC
Launch vehicle
Mass (kg)
RCS (m²)

Purposes: comms

External: N2YO · Heavens-Above · Gunter

§ Orbital elements

Epoch: 2026-05-25T03:24:51.873984Z

Period
109.89 min
Inclination
87.8854°
Eccentricity
0.0001826
Mean motion
13.10377028 rev/d
Perigee alt
1,220.3 km
Apogee alt
1,223.1 km
Semi-major
7,599.8 km
B*
2.8675e-4
RAAN
40.8668°
Arg perigee
75.4092°
Mean anomaly
284.7238°
Rev number
30,484

§ Raw data

ONEWEB-00401 45147U 20008S   26145.14226706  .00000113  00000+0  28675-3 0  99922 45147  87.8854  40.8668 0001826  75.4092 284.7238 13.10377028304844

JSON: /api/v1/satellites/45147 · /tle

For live sub-satellite position, see the globe view (requires WebGL).

§ Visibility from observer

Set your observer location to see the next 7 days of passes ≥ 10°. The values pass through the URL so the page stays shareable.

No JS? Fill the form by hand. The geolocation button needs JavaScript.